Wind_Speed
4 4 4 3 4 4 5 5 5 5 5 4 4 5 5 6 6 6 6 6 6 5 6 6 5 5 4 4 4 4 4 3 3 3 4 4 5 4 4 4 5 5 5 5 6 6 6 6 7
5 5 5 5 6 6 6 6 6 6 6 6 6 6 6 7 7 7 7 7 6 6 6 6 6 6 5 5 5 5 4 4 4 4 5 5 5 5 5 6 6 6 6 6 6 6 7 7 8
7 7 7 7 8 8 7 7 7 7 7 7 7 7 7 7 8 8 7 7 6 6 6 6 5 5 5 5 5 5 5 5 4 5 6 6 6 6 6 6 6 7 7 7 7 7 7 7 8
8 8 8 8 9 9 9 8 8 8 9 8 8 8 8 8 7 8 8 7 7 7 6 6 6 5 5 4 4 5 5 5 5 5 6 6 6 6 6 6 7 7 7 7 7 7 7 8 8
9 9 10 10 10 9 10 10 10 9 9 10 9 8 8 8 8 8 7 8 8 8 7 7 7 6 5 5 5 5 5 5 5 6 6 7 7 7 7 7 7 7 7 7 7 7 7 7 8
11 11 11 11 11 11 10 11 11 10 10 10 10 9 9 9 9 8 8 8 8 8 8 7 6 5 5 5 5 4 4 5 6 6 7 7 6 7 7 6 6 6 6 7 7 7 7 7 8
12 12 12 12 12 12 11 12 12 12 12 12 11 10 10 9 9 10 9 9 8 8 8 7 6 5 5 5 5 4 4 5 5 6 6 6 6 6 6 6 5 6 6 6 7 7 8 8 8
12 13 13 14 13 13 13 13 13 12 13 12 12 11 11 10 10 10 10 9 8 8 7 8 6 5 5 4 5 5 5 4 5 5 5 6 5 5 5 5 5 6 6 7 7 7 8 8 8
13 13 14 14 14 14 14 14 13 13 13 13 12 11 12 11 10 10 10 9 9 8 8 8 7 6 5 5 5 5 5 5 5 5 5 5 5 5 6 6 6 6 7 7 7 8 8 8 9
13 14 14 15 15 15 15 15 14 14 14 13 12 12 12 11 11 11 10 10 9 9 8 8 7 6 5 5 4 4 4 4 5 5 5 5 5 6 6 6 6 7 7 7 7 7 8 8 8
14 14 15 16 16 16 15 16 15 15 14 14 13 12 12 11 11 11 11 10 9 9 8 8 7 6 5 4 3 3 4 3 4 4 4 5 5 6 6 6 6 7 7 7 7 7 7 7 7
15 15 16 16 16 16 16 16 16 15 15 15 14 14 13 12 12 12 11 10 9 9 8 7 6 5 3 3 2 3 3 3 3 4 4 5 5 5 6 6 6 6 6 6 6 6 7 6 6
15 15 16 16 16 17 17 17 17 16 16 15 15 15 15 14 13 12 11 10 9 8 7 6 6 4 2 2 2 3 3 2 3 4 4 5 5 6 6 6 7 7 6 6 6 6 5 5 5
15 15 15 16 16 17 17 17 17 17 17 16 16 16 15 13 12 11 11 10 9 8 7 5 4 4 3 2 3 3 2 2 2 4 4 5 5 6 6 6 7 7 6 6 5 4 4 3 3
15 15 15 15 16 17 17 18 18 17 17 17 17 16 16 14 12 12 11 11 10 9 7 6 5 4 3 2 2 2 1 2 3 4 5 5 5 5 6 6 7 7 7 6 5 4 4 3 2
15 15 16 16 16 17 17 18 18 18 17 17 17 16 16 14 13 13 11 10 11 10 8 6 5 4 3 2 1 1 1 2 3 4 5 5 5 5 6 7 7 7 7 7 5 5 4 4 3
14 15 16 17 16 17 18 18 19 18 17 17 17 17 16 15 14 14 12 11 11 10 9 7 6 4 3 2 1 1 1 2 3 4 5 5 6 6 6 7 7 7 7 7 6 5 5 4 4
14 15 15 17 17 16 17 18 19 18 18 18 17 17 15 15 15 14 13 12 11 10 9 8 7 5 3 2 1 0 1 2 3 4 5 5 6 6 7 7 7 7 7 7 6 6 5 4 4
14 15 16 17 17 16 17 18 18 18 18 18 18 17 16 16 16 15 14 12 12 11 10 9 7 6 4 3 2 1 1 1 2 4 5 5 6 6 7 8 7 7 7 7 6 6 5 4 4
14 15 16 16 16 16 16 17 18 18 17 17 17 17 16 16 16 16 15 14 13 13 11 9 8 6 5 4 3 2 1 1 2 3 4 5 6 7 7 7 7 7 7 7 6 6 6 5 4
14 15 15 15 15 16 16 16 17 17 17 17 18 17 17 16 16 16 15 15 14 14 12 10 9 8 6 5 4 3 2 1 1 2 3 5 6 7 7 7 7 7 7 7 7 6 6 5 5
13 13 14 14 15 16 15 15 15 16 17 17 17 17 17 17 16 16 15 15 14 14 12 10 9 8 7 6 5 4 3 1 0 1 2 4 5 6 7 7 7 7 7 7 7 6 6 5 5
12 11 12 13 14 14 14 14 14 16 17 16 16 17 17 17 17 17 16 15 15 14 13 10 10 9 8 7 6 5 4 2 1 1 2 3 4 5 6 7 7 7 7 7 7 6 6 6 5
11 11 11 12 13 13 13 14 14 16 16 15 16 16 17 17 17 17 17 15 15 15 13 12 10 10 8 7 7 6 5 4 2 1 1 2 3 5 5 6 7 7 6 6 6 6 7 6 6
11 11 10 11 12 11 12 14 14 15 15 15 15 16 16 17 17 17 17 16 16 15 15 13 11 10 9 8 8 7 6 5 3 2 1 1 2 4 4 5 6 6 6 6 6 6 7 6 6
11 11 10 10 10 10 11 13 13 14 14 14 15 16 17 17 17 17 17 16 16 16 15 14 12 11 10 9 9 9 8 6 4 3 2 0 1 2 3 4 5 6 6 6 6 6 6 6 6
11 11 10 11 11 11 11 12 12 12 12 13 14 16 17 17 17 17 17 17 17 16 15 14 14 12 11 10 10 10 9 7 5 4 2 1 0 1 2 3 4 5 5 6 6 6 6 6 6
11 10 10 11 11 11 10 11 12 11 12 12 13 14 15 16 16 18 18 17 17 17 16 14 14 13 12 11 10 11 10 8 7 5 4 3 1 0 1 2 3 3 4 4 5 5 5 6 6
12 12 11 11 11 10 10 10 11 11 11 11 12 13 14 15 16 17 18 18 17 17 16 15 14 13 12 11 10 11 11 10 8 7 5 4 3 2 1 0 1 1 2 3 3 4 4 5 5
13 12 12 13 12 11 10 9 10 11 11 11 12 13 14 14 15 17 18 18 18 17 16 16 15 14 13 12 11 12 12 11 10 8 7 6 5 4 3 2 1 1 1 2 2 3 3 4 4
Wind_Direction
280 285 286 283 277 270 271 274 273 271 276 278 273 265 263 256 252 252 251 246 240 236 231 228 231 236 245 260 275 284 282 285 296 306 311 312 314 307 295 291 288 285 278 272 267 269 272 268 263
275 279 277 274 267 264 265 271 268 272 274 274 272 272 267 264 259 254 253 246 237 235 232 236 240 242 252 263 273 278 282 289 291 301 303 308 310 310 298 294 291 287 283 276 279 276 274 271 267
273 275 274 272 269 271 267 269 267 267 270 270 268 268 266 264 262 256 251 248 241 241 239 242 243 246 253 257 270 274 278 283 292 297 299 307 312 311 301 294 289 284 283 283 285 283 279 276 271
271 272 271 269 268 272 274 272 269 270 267 266 266 268 265 264 265 261 254 253 245 245 245 245 245 254 258 262 276 279 283 289 299 297 296 301 305 305 301 294 287 285 284 285 287 286 282 276 272
270 269 269 267 264 268 270 273 271 268 267 265 266 268 265 262 264 260 259 256 250 248 247 250 250 255 257 270 280 292 295 300 305 303 300 301 302 306 306 298 294 289 285 286 286 286 282 275 270
269 267 265 267 266 266 266 267 268 266 268 265 265 266 263 260 260 257 259 260 250 247 248 249 252 256 259 270 275 283 295 301 304 308 306 308 306 307 306 300 296 290 286 285 284 284 281 275 269
267 265 263 264 266 264 262 265 268 266 267 264 264 263 262 260 260 256 257 259 251 244 246 241 247 258 262 268 281 283 297 307 310 311 311 314 317 317 313 307 301 296 291 289 288 285 281 277 270
264 263 262 262 263 262 261 263 266 267 266 266 263 264 263 260 258 256 255 255 249 243 244 240 241 251 262 274 292 290 295 308 320 319 321 322 324 321 317 313 307 303 297 293 290 287 284 280 273
262 260 261 262 260 260 260 261 263 266 268 265 262 261 261 261 258 255 253 252 245 243 243 243 246 250 256 270 287 297 302 308 322 325 324 328 332 330 325 317 310 307 303 296 292 290 286 282 276
259 259 260 262 260 259 260 261 261 264 265 263 260 259 260 259 259 258 253 248 242 242 244 244 252 260 261 272 292 310 318 316 321 323 326 334 335 331 327 323 315 308 305 300 295 294 288 282 278
258 258 260 261 261 261 261 261 261 262 262 262 260 257 256 258 258 257 250 244 239 239 243 248 251 251 263 278 301 318 326 326 327 331 336 341 342 339 338 334 325 315 308 302 299 298 292 286 280
258 258 257 259 261 260 260 260 260 261 260 260 259 258 252 255 255 253 251 241 241 240 243 243 242 247 261 273 295 319 328 330 334 343 347 344 344 346 344 343 337 326 316 309 306 302 299 293 285
260 261 260 261 262 260 259 260 260 259 259 258 257 257 250 252 251 248 248 239 240 242 244 238 234 238 254 282 313 326 335 343 342 348 349 346 347 347 346 348 344 337 331 326 321 316 313 304 291
263 264 262 263 263 261 259 259 259 260 258 255 255 255 252 248 243 242 241 236 235 236 237 238 234 242 255 284 317 328 341 358 359 359 356 355 351 350 350 349 352 351 347 342 341 339 339 327 305
264 264 264 264 264 261 259 258 259 260 257 254 253 253 251 247 246 239 235 232 232 227 223 228 233 240 251 278 311 330 2 22 12 8 3 3 360 356 358 359 360 359 1 359 0 4 8 358 346
265 265 264 264 263 261 260 260 260 261 257 253 251 251 249 244 244 239 233 231 230 223 219 222 227 231 243 258 290 341 46 33 19 16 10 7 7 5 5 7 7 7 9 10 11 16 23 25 33
264 266 266 265 264 262 261 260 260 260 258 254 251 248 246 243 244 239 235 229 224 218 216 217 218 222 228 240 240 330 64 44 30 23 16 18 19 17 14 12 10 13 17 19 21 25 34 41 54
267 267 267 266 265 264 262 260 260 258 256 253 251 249 242 241 241 237 234 229 222 217 214 210 209 208 215 226 218 340 66 48 40 31 27 28 26 22 18 17 16 20 23 25 29 36 44 59 65
267 267 266 266 265 264 263 260 259 258 255 251 247 245 241 240 238 235 232 226 222 217 214 209 207 205 209 218 214 227 103 61 48 40 37 35 29 24 22 21 22 24 28 30 33 42 49 61 64
264 265 266 263 264 264 262 261 259 257 254 251 246 242 240 235 234 232 231 226 223 218 212 208 207 206 207 206 208 189 153 97 56 45 40 36 32 28 23 27 27 28 32 34 39 48 54 59 61
263 263 261 260 264 263 261 259 258 259 254 251 247 243 241 239 233 228 227 223 221 217 212 207 208 208 209 204 206 196 184 150 68 47 38 33 32 30 29 31 32 35 36 39 42 48 56 61 60
261 260 259 261 261 262 261 261 257 260 258 251 246 243 240 235 230 225 225 220 217 212 207 207 210 208 208 206 208 202 200 198 131 62 39 32 34 37 34 35 39 42 43 45 48 49 53 57 60
262 258 260 261 263 263 261 261 260 259 259 254 247 241 237 234 231 227 223 217 213 210 209 211 212 211 209 208 208 202 206 204 178 109 46 37 39 40 40 43 47 50 49 48 50 54 57 58 61
262 261 259 259 262 263 260 263 262 261 262 255 246 235 232 231 230 224 217 213 211 210 211 211 209 207 207 208 210 205 205 205 196 174 87 52 45 45 44 46 50 53 52 50 54 58 60 59 63
261 260 259 258 258 262 260 261 265 262 262 255 241 230 229 228 224 222 216 212 211 212 212 210 209 207 208 209 207 205 204 206 201 190 159 64 51 49 46 47 51 58 56 57 58 60 57 55 56
259 256 255 255 258 262 257 262 269 265 262 253 239 230 228 224 225 219 216 216 215 215 214 213 211 211 211 210 210 207 205 206 204 205 201 152 58 50 47 48 55 60 60 59 60 58 53 49 52
258 252 252 253 252 255 261 269 273 269 260 252 242 233 229 229 227 221 219 218 218 216 214 213 211 211 213 213 213 209 207 207 207 209 210 211 144 50 59 62 64 65 63 61 59 57 51 45 45
256 253 245 248 251 253 258 262 267 269 263 252 243 239 229 227 225 222 219 218 218 218 216 215 213 214 217 216 215 210 211 212 212 213 214 218 217 199 100 82 74 71 67 60 56 54 46 42 41
255 251 249 250 254 250 252 251 258 264 260 250 243 238 234 231 226 222 218 217 219 219 216 214 213 216 218 217 218 214 212 213 215 217 220 223 219 210 199 136 77 58 48 44 43 39 37 34 33
253 249 251 250 249 251 253 256 263 263 256 248 245 238 231 230 225 221 219 219 219 217 215 213 213 217 220 219 222 219 216 217 219 222 223 226 226 231 237 247 260 301 341 357 7 9 12 13 13
Height
5884 5884 5885 5886 5887 5887 5886 5886 5886 5886 5886 5886 5886 5886 5887 5887 5888 5890 5888 5887 5887 5888 5888 5888 5889 5889 5889 5889 5889 5889 5889 5888 5888 5888 5887 5887 5887 5887 5886 5886 5886 5886 5886 5886 5886 5887 5887 5887 5887
5883 5883 5885 5885 5885 5885 5886 5885 5885 5886 5886 5886 5886 5886 5886 5886 5887 5887 5886 5886 5887 5888 5888 5888 5888 5888 5888 5888 5888 5888 5888 5887 5887 5887 5887 5886 5886 5885 5885 5885 5885 5885 5885 5885 5885 5885 5885 5886 5885
5882 5883 5884 5884 5884 5884 5884 5884 5884 5885 5885 5885 5885 5886 5886 5886 5886 5885 5885 5886 5886 5887 5887 5887 5887 5888 5888 5887 5887 5887 5887 5887 5886 5886 5885 5885 5884 5884 5884 5884 5884 5884 5884 5884 5884 5884 5884 5884 5884
5881 5882 5883 5883 5883 5882 5882 5882 5883 5883 5884 5884 5885 5885 5885 5885 5885 5885 5884 5885 5886 5886 5886 5887 5887 5887 5887 5887 5886 5886 5886 5885 5885 5885 5884 5884 5883 5883 5882 5882 5882 5882 5882 5882 5882 5882 5882 5882 5882
5880 5881 5881 5881 5881 5881 5881 5881 5881 5882 5882 5883 5883 5884 5883 5884 5884 5883 5884 5884 5885 5885 5886 5886 5886 5886 5886 5886 5886 5885 5885 5885 5884 5884 5883 5882 5882 5881 5881 5881 5880 5880 5880 5880 5880 5880 5880 5880 5880
5878 5879 5879 5879 5879 5879 5879 5880 5880 5880 5881 5881 5882 5883 5882 5882 5883 5882 5883 5883 5884 5884 5884 5885 5885 5885 5885 5885 5885 5884 5884 5884 5883 5883 5882 5881 5881 5880 5879 5879 5879 5878 5878 5878 5878 5879 5878 5878 5878
5877 5877 5877 5877 5877 5878 5878 5878 5878 5879 5879 5880 5880 5881 5881 5881 5881 5881 5881 5882 5882 5883 5883 5884 5884 5884 5884 5884 5884 5883 5883 5883 5882 5881 5881 5880 5879 5879 5878 5878 5877 5877 5877 5877 5877 5877 5876 5876 5876
5873 5875 5874 5874 5875 5875 5876 5876 5877 5877 5878 5878 5879 5880 5879 5880 5880 5880 5880 5880 5881 5882 5882 5883 5883 5883 5883 5883 5883 5882 5882 5882 5881 5881 5880 5879 5878 5878 5877 5877 5876 5876 5875 5875 5875 5875 5875 5874 5874
5870 5872 5872 5872 5872 5873 5874 5874 5875 5875 5876 5876 5877 5878 5878 5878 5878 5879 5879 5879 5880 5881 5881 5882 5882 5882 5882 5882 5882 5881 5881 5881 5881 5880 5879 5878 5878 5877 5876 5876 5875 5875 5874 5873 5873 5873 5872 5872 5872
5868 5869 5869 5869 5870 5871 5871 5872 5873 5873 5873 5874 5875 5876 5876 5876 5877 5877 5878 5878 5879 5879 5880 5880 5881 5881 5881 5881 5881 5881 5881 5880 5880 5879 5878 5878 5877 5876 5875 5875 5874 5873 5872 5872 5871 5871 5870 5870 5870
5865 5866 5866 5866 5867 5868 5869 5869 5870 5871 5871 5872 5873 5874 5874 5874 5875 5876 5876 5877 5878 5878 5879 5879 5880 5880 5880 5881 5881 5881 5880 5880 5879 5879 5878 5877 5876 5875 5874 5873 5873 5872 5871 5870 5870 5869 5868 5868 5868
5863 5862 5863 5864 5864 5865 5866 5867 5867 5868 5869 5870 5870 5871 5872 5873 5873 5874 5875 5876 5877 5877 5878 5878 5879 5879 5880 5880 5880 5880 5879 5879 5879 5878 5877 5876 5876 5875 5874 5873 5872 5870 5869 5869 5868 5867 5867 5866 5866
5860 5860 5861 5861 5862 5862 5863 5864 5865 5865 5866 5867 5868 5869 5870 5871 5871 5873 5873 5874 5875 5876 5877 5877 5878 5879 5879 5879 5880 5879 5879 5879 5878 5877 5876 5876 5875 5874 5873 5872 5871 5869 5868 5867 5867 5866 5865 5865 5865
5857 5857 5857 5858 5859 5859 5860 5861 5862 5862 5863 5864 5866 5866 5867 5868 5870 5871 5872 5873 5874 5875 5876 5877 5878 5879 5879 5879 5879 5879 5879 5878 5878 5877 5876 5875 5874 5873 5872 5871 5870 5869 5868 5867 5866 5865 5865 5864 5864
5853 5854 5855 5855 5855 5856 5857 5858 5859 5860 5861 5862 5863 5864 5865 5866 5867 5869 5870 5871 5873 5874 5875 5876 5877 5878 5879 5879 5879 5879 5878 5878 5877 5877 5876 5875 5874 5873 5872 5871 5870 5869 5867 5866 5866 5865 5864 5864 5863
5850 5851 5852 5852 5852 5853 5856 5855 5856 5856 5858 5859 5860 5862 5862 5864 5866 5867 5868 5870 5872 5873 5874 5875 5877 5878 5878 5878 5879 5879 5878 5878 5877 5877 5876 5875 5874 5873 5872 5871 5870 5869 5867 5866 5866 5865 5864 5864 5863
5847 5848 5848 5849 5849 5850 5851 5852 5852 5853 5854 5855 5857 5859 5860 5862 5864 5865 5867 5869 5870 5871 5873 5874 5876 5877 5878 5878 5878 5879 5878 5878 5877 5877 5876 5875 5874 5873 5872 5871 5870 5869 5868 5867 5866 5865 5865 5864 5864
5844 5844 5845 5845 5845 5846 5847 5848 5849 5850 5851 5852 5854 5856 5857 5860 5862 5864 5865 5867 5869 5870 5872 5874 5875 5876 5877 5878 5878 5879 5879 5878 5878 5877 5876 5875 5875 5874 5872 5871 5870 5869 5869 5868 5867 5866 5865 5865 5865
5841 5841 5841 5842 5842 5843 5844 5845 5846 5847 5848 5849 5851 5853 5855 5857 5859 5861 5863 5865 5867 5869 5870 5872 5874 5875 5877 5878 5878 5879 5879 5878 5878 5878 5877 5876 5875 5874 5873 5872 5871 5870 5869 5868 5867 5867 5866 5866 5866
5838 5838 5839 5839 5839 5840 5841 5842 5843 5843 5845 5846 5848 5850 5852 5854 5857 5859 5861 5863 5865 5867 5869 5871 5873 5874 5876 5877 5878 5878 5879 5879 5878 5878 5877 5877 5876 5875 5874 5873 5872 5871 5870 5869 5868 5868 5867 5867 5867
5835 5836 5836 5836 5836 5837 5838 5839 5840 5841 5842 5844 5845 5847 5849 5851 5854 5856 5858 5861 5863 5865 5867 5870 5872 5873 5875 5876 5877 5878 5878 5879 5879 5879 5878 5878 5877 5876 5875 5874 5873 5872 5871 5870 5869 5869 5868 5868 5868
5832 5833 5833 5833 5834 5835 5836 5837 5837 5838 5839 5841 5843 5844 5846 5849 5851 5854 5856 5858 5861 5864 5866 5868 5870 5872 5874 5875 5877 5878 5878 5879 5879 5879 5879 5878 5877 5876 5876 5875 5874 5872 5872 5871 5871 5870 5870 5870 5869
5830 5830 5831 5831 5831 5832 5833 5834 5835 5835 5837 5838 5840 5842 5843 5846 5848 5851 5854 5856 5859 5862 5865 5867 5869 5871 5873 5875 5876 5877 5878 5879 5879 5879 5880 5879 5878 5877 5877 5876 5875 5874 5873 5873 5872 5872 5871 5871 5871
5827 5828 5828 5828 5829 5830 5831 5831 5832 5833 5834 5835 5836 5838 5840 5843 5846 5848 5852 5854 5858 5860 5863 5866 5868 5870 5872 5874 5875 5877 5878 5879 5879 5880 5880 5880 5879 5879 5878 5877 5876 5875 5875 5874 5874 5873 5873 5872 5872
5825 5826 5826 5826 5827 5828 5829 5829 5830 5830 5831 5832 5834 5836 5838 5840 5843 5847 5850 5853 5856 5859 5861 5864 5866 5869 5871 5872 5874 5876 5877 5878 5879 5880 5880 5880 5880 5880 5879 5879 5878 5877 5876 5876 5875 5875 5874 5874 5874
5823 5824 5825 5825 5826 5826 5826 5826 5828 5827 5828 5829 5831 5833 5836 5838 5841 5844 5847 5851 5854 5857 5860 5862 5865 5867 5869 5871 5873 5875 5877 5878 5879 5880 5880 5880 5881 5880 5880 5880 5879 5878 5878 5877 5877 5876 5876 5876 5875
5821 5821 5822 5823 5823 5824 5824 5824 5825 5825 5826 5827 5829 5831 5833 5836 5839 5842 5845 5849 5852 5855 5858 5860 5863 5866 5868 5870 5872 5874 5876 5877 5878 5879 5880 5880 5881 5881 5881 5881 5880 5880 5879 5879 5878 5878 5877 5877 5876
5819 5819 5820 5821 5821 5822 5823 5823 5823 5823 5824 5825 5827 5828 5831 5834 5836 5839 5843 5846 5849 5853 5856 5858 5861 5864 5866 5868 5870 5873 5875 5876 5877 5879 5880 5880 5881 5881 5881 5881 5881 5881 5880 5880 5879 5879 5878 5878 5877
5817 5818 5818 5819 5819 5820 5820 5822 5821 5821 5822 5823 5825 5826 5829 5831 5834 5837 5840 5844 5847 5850 5853 5856 5859 5862 5865 5867 5869 5871 5873 5875 5876 5878 5879 5880 5880 5881 5881 5882 5882 5881 5881 5881 5880 5880 5879 5878 5878
5813 5815 5816 5817 5817 5817 5817 5821 5818 5819 5820 5821 5822 5824 5826 5829 5831 5834 5838 5841 5844 5848 5851 5854 5857 5860 5862 5865 5867 5869 5871 5873 5875 5876 5877 5879 5880 5880 5881 5881 5882 5882 5881 5881 5881 5880 5880 5879 5878